Tracking 17558 objects as of 14-February-2016
HD Live streaming from Space Station
objects crossing your sky now

BEIDOU 1B

Track BEIDOU 1B now!
BEIDOU 1B is classified as:


NORAD ID: 26643
Int'l Code: 2000-082A
Perigee: 35,737.5 km
Apogee: 36,424.5 km
Inclination: 7.2 °
Period: 1,450.8 minutes
Semi major axis: 42451 km
RCS: 0.1238 m2 (medium)
Launch date: December 20, 2000
Source: People's Republic of China (PRC)
Launch site: Xichang Space Center, China (XSC)

Space-bsaed navigation and positioning system to improve accuracy of weapons and situational awareness of military forces.
Your satellite tracking list
Your tracking list is empty





NASA's NSSDC Master Catalog

Two Line Element Set (TLE):
1 26643U 00082A   16045.26851648 -.00000216  00000-0  00000+0 0  9996
2 26643   7.2009  52.2044 0080909 355.5959   4.4462  0.99255735 5537
Source of the keplerian elements: AFSPC

N2YO: 424